Time,TemperatureF,DewpointF,PressureIn,WindDirection,WindDirectionDegrees,WindSpeedMPH,WindSpeedGustMPH,Humidity,HourlyPrecipIn,Conditions,Clouds,dailyrainin,SoftwareType,DateUTC
2013-06-26 00:05:00,74.8,71.4,29.80,SE,135,0.0,1.0,89,0.00,RA,,0.00,WeatherDisplay:10.37,2013-06-26 04:05:00,
2013-06-26 00:10:00,74.5,71.4,29.79,SE,135,0.0,1.0,90,0.00,CLR,,0.00,WeatherDisplay:10.37,2013-06-26 04:10:00,
2013-06-26 00:15:00,74.5,71.4,29.79,SE,135,0.0,1.0,90,0.00,CLR,,0.00,WeatherDisplay:10.37,2013-06-26 04:15:00,
2013-06-26 00:20:00,74.5,71.4,29.79,SE,129,0.0,1.0,90,0.00,CLR,,0.00,WeatherDisplay:10.37,2013-06-26 04:20:00,
2013-06-26 00:25:00,74.5,71.4,29.79,East,100,0.0,2.0,90,0.00,CLR,,0.00,WeatherDisplay:10.37,2013-06-26 04:25:00,
2013-06-26 00:35:00,74.4,71.6,29.78,East,81,0.0,2.0,91,0.00,CLR,,0.00,WeatherDisplay:10.37,2013-06-26 04:35:00,
2013-06-26 00:40:00,74.3,71.8,29.78,SE,137,0.0,2.0,92,0.00,CLR,,0.00,WeatherDisplay:10.37,2013-06-26 04:40:00,
2013-06-26 00:45:00,74.3,71.8,29.78,South,176,1.0,2.0,92,0.00,CLR,,0.00,WeatherDisplay:10.37,2013-06-26 04:45:00,
2013-06-26 00:50:00,74.3,71.8,29.79,WSW,257,0.0,2.0,92,0.00,CLR,,0.00,WeatherDisplay:10.37,2013-06-26 04:50:00,
2013-06-26 00:55:00,74.1,71.6,29.78,NNE,27,0.0,1.0,92,0.00,CLR,,0.00,WeatherDisplay:10.37,2013-06-26 04:55:00,
2013-06-26 01:00:00,74.1,71.6,29.78,North,11,1.0,2.0,92,0.00,CLR,,0.00,WeatherDisplay:10.37,2013-06-26 05:00:00,
2013-06-26 01:05:00,73.9,71.8,29.78,NNW,340,0.0,2.0,93,0.00,CLR,,0.00,WeatherDisplay:10.37,2013-06-26 05:05:00,
2013-06-26 01:10:00,73.9,71.8,29.77,NNE,31,0.0,2.0,93,0.00,CLR,,0.00,WeatherDisplay:10.37,2013-06-26 05:10:00,
2013-06-26 01:15:00,73.9,71.8,29.78,East,80,0.0,1.0,93,0.00,CLR,,0.00,WeatherDisplay:10.37,2013-06-26 05:15:00,
2013-06-26 01:20:00,73.9,71.8,29.78,East,79,0.0,2.0,93,0.00,CLR,,0.00,WeatherDisplay:10.37,2013-06-26 05:20:00,
2013-06-26 01:25:00,73.8,71.6,29.78,NE,54,0.0,1.0,93,0.00,CLR,,0.00,WeatherDisplay:10.37,2013-06-26 05:25:00,
2013-06-26 01:30:00,73.8,71.9,29.78,ENE,72,0.0,2.0,94,0.00,CLR,,0.00,WeatherDisplay:10.37,2013-06-26 05:30:00,
2013-06-26 01:35:00,73.8,71.9,29.77,NE,56,0.0,2.0,94,0.00,CLR,,0.00,WeatherDisplay:10.37,2013-06-26 05:35:00,
2013-06-26 01:40:00,73.6,71.7,29.77,NNE,27,1.0,3.0,94,0.00,CLR,,0.00,WeatherDisplay:10.37,2013-06-26 05:40:00,
2013-06-26 01:45:00,73.5,71.6,29.78,ENE,61,0.0,2.0,94,0.00,CLR,,0.00,WeatherDisplay:10.37,2013-06-26 05:45:00,
2013-06-26 01:50:00,73.4,71.6,29.78,East,87,0.0,2.0,94,0.00,CLR,,0.00,WeatherDisplay:10.37,2013-06-26 05:50:00,
2013-06-26 01:55:00,73.2,71.1,29.79,East,81,0.0,3.0,93,0.00,CLR,,0.00,WeatherDisplay:10.37,2013-06-26 05:55:00,
2013-06-26 02:00:00,73.2,71.1,29.79,NE,36,1.0,3.0,93,0.00,CLR,,0.00,WeatherDisplay:10.37,2013-06-26 06:00:00,
2013-06-26 02:05:00,73.2,71.1,29.79,North,4,0.0,2.0,93,0.00,CLR,,0.00,WeatherDisplay:10.37,2013-06-26 06:05:00,
2013-06-26 02:10:00,73.2,71.1,29.79,NNE,16,1.0,3.0,93,0.00,CLR,,0.00,WeatherDisplay:10.37,2013-06-26 06:10:00,
2013-06-26 02:15:00,73.2,71.1,29.79,NNW,347,1.0,3.0,93,0.00,CLR,,0.00,WeatherDisplay:10.37,2013-06-26 06:15:00,
2013-06-26 02:20:00,73.2,70.8,29.79,NNE,31,0.0,4.0,92,0.00,CLR,,0.00,WeatherDisplay:10.37,2013-06-26 06:20:00,
2013-06-26 02:25:00,73.2,70.4,29.79,ENE,66,0.0,3.0,91,0.00,CLR,,0.00,WeatherDisplay:10.37,2013-06-26 06:25:00,
2013-06-26 02:30:00,73.2,70.4,29.79,NNE,15,1.0,6.0,91,0.00,CLR,,0.00,WeatherDisplay:10.37,2013-06-26 06:30:00,
2013-06-26 02:35:00,73.2,70.1,29.80,NNE,31,0.0,3.0,90,0.00,CLR,,0.00,WeatherDisplay:10.37,2013-06-26 06:35:00,
2013-06-26 02:40:00,73.2,70.1,29.79,NNE,17,1.0,2.0,90,0.00,CLR,,0.00,WeatherDisplay:10.37,2013-06-26 06:40:00,
2013-06-26 02:45:00,73.0,69.6,29.79,East,80,0.0,2.0,89,0.00,CLR,,0.00,WeatherDisplay:10.37,2013-06-26 06:45:00,
2013-06-26 02:50:00,73.0,69.6,29.79,East,80,0.0,2.0,89,0.00,CLR,,0.00,WeatherDisplay:10.37,2013-06-26 06:50:00,
2013-06-26 03:00:00,72.7,68.9,29.79,South,191,0.0,2.0,88,0.00,CLR,,0.00,WeatherDisplay:10.37,2013-06-26 07:00:00,
2013-06-26 03:05:00,72.7,68.9,29.79,East,100,0.0,4.0,88,0.00,SCT,,0.00,WeatherDisplay:10.37,2013-06-26 07:05:00,
2013-06-26 03:10:00,72.5,68.4,29.80,East,79,1.0,2.0,87,0.00,SCT,,0.00,WeatherDisplay:10.37,2013-06-26 07:10:00,
2013-06-26 03:15:00,72.5,68.4,29.80,NE,46,1.0,3.0,87,0.00,SCT,,0.00,WeatherDisplay:10.37,2013-06-26 07:15:00,
2013-06-26 03:20:00,72.5,68.4,29.80,NE,39,1.0,2.0,87,0.00,SCT,,0.00,WeatherDisplay:10.37,2013-06-26 07:20:00,
2013-06-26 03:25:00,72.3,68.2,29.79,NE,51,0.0,6.0,87,0.00,SCT,,0.00,WeatherDisplay:10.37,2013-06-26 07:25:00,
2013-06-26 03:30:00,72.1,67.7,29.79,NE,42,0.0,3.0,86,0.00,SCT,,0.00,WeatherDisplay:10.37,2013-06-26 07:30:00,
2013-06-26 03:40:00,72.0,67.9,29.79,East,100,1.0,3.0,87,0.00,SCT,,0.00,WeatherDisplay:10.37,2013-06-26 07:40:00,
2013-06-26 03:45:00,71.9,67.9,29.79,ENE,68,1.0,3.0,87,0.00,SCT,,0.00,WeatherDisplay:10.37,2013-06-26 07:45:00,
2013-06-26 03:50:00,71.8,67.7,29.79,NE,45,0.0,5.0,87,0.00,SCT,,0.00,WeatherDisplay:10.37,2013-06-26 07:50:00,
2013-06-26 03:55:00,71.8,67.7,29.80,ENE,58,1.0,2.0,87,0.00,SCT,,0.00,WeatherDisplay:10.37,2013-06-26 07:55:00,
2013-06-26 04:00:00,71.6,67.5,29.80,ENE,69,1.0,3.0,87,0.00,SCT,,0.00,WeatherDisplay:10.37,2013-06-26 08:00:00,
2013-06-26 04:10:00,71.6,67.5,29.80,East,90,0.0,2.0,87,0.00,CLR,,0.00,WeatherDisplay:10.37,2013-06-26 08:10:00,
2013-06-26 04:15:00,71.6,67.5,29.80,East,82,1.0,2.0,87,0.00,CLR,,0.00,WeatherDisplay:10.37,2013-06-26 08:15:00,
2013-06-26 04:25:00,71.6,67.5,29.80,ENE,65,0.0,2.0,87,0.00,CLR,,0.00,WeatherDisplay:10.37,2013-06-26 08:25:00,
2013-06-26 04:30:00,71.4,67.7,29.80,ENE,74,1.0,3.0,88,0.00,CLR,,0.00,WeatherDisplay:10.37,2013-06-26 08:30:00,
2013-06-26 04:35:00,71.4,67.7,29.80,ENE,63,1.0,4.0,88,0.00,CLR,,0.00,WeatherDisplay:10.37,2013-06-26 08:35:00,
2013-06-26 04:40:00,71.2,67.5,29.80,ENE,67,1.0,3.0,88,0.00,CLR,,0.00,WeatherDisplay:10.37,2013-06-26 08:40:00,
2013-06-26 04:45:00,71.2,67.5,29.80,SE,128,0.0,3.0,88,0.00,CLR,,0.00,WeatherDisplay:10.37,2013-06-26 08:45:00,
2013-06-26 04:55:00,71.1,67.3,29.81,East,92,0.0,2.0,88,0.00,CLR,,0.00,WeatherDisplay:10.37,2013-06-26 08:55:00,
2013-06-26 05:00:00,71.1,67.7,29.81,ENE,70,1.0,2.0,89,0.00,CLR,,0.00,WeatherDisplay:10.37,2013-06-26 09:00:00,
2013-06-26 05:10:00,70.9,67.1,29.81,SSE,150,1.0,5.0,88,0.00,CLR,,0.00,WeatherDisplay:10.37,2013-06-26 09:10:00,
2013-06-26 05:15:00,70.7,67.0,29.81,ESE,121,1.0,3.0,88,0.00,CLR,,0.00,WeatherDisplay:10.37,2013-06-26 09:15:00,
2013-06-26 05:20:00,70.6,67.2,29.81,ENE,68,0.0,2.0,89,0.00,CLR,,0.00,WeatherDisplay:10.37,2013-06-26 09:20:00,
2013-06-26 05:25:00,70.5,67.1,29.81,ESE,111,1.0,2.0,89,0.00,CLR,,0.00,WeatherDisplay:10.37,2013-06-26 09:25:00,
2013-06-26 05:30:00,70.5,67.1,29.81,SE,124,0.0,2.0,89,0.00,CLR,,0.00,WeatherDisplay:10.37,2013-06-26 09:30:00,
2013-06-26 05:40:00,70.3,66.9,29.82,SE,142,0.0,2.0,89,0.00,CLR,,0.00,WeatherDisplay:10.37,2013-06-26 09:40:00,
2013-06-26 05:45:00,70.3,66.9,29.81,ESE,123,1.0,3.0,89,0.00,CLR,,0.00,WeatherDisplay:10.37,2013-06-26 09:45:00,
2013-06-26 05:50:00,70.2,66.8,29.82,SE,126,1.0,2.0,89,0.00,CLR,,0.00,WeatherDisplay:10.37,2013-06-26 09:50:00,
2013-06-26 05:55:00,70.2,67.1,29.81,East,84,1.0,2.0,90,0.00,CLR,,0.00,WeatherDisplay:10.37,2013-06-26 09:55:00,
2013-06-26 06:00:00,70.2,67.1,29.82,ESE,105,0.0,2.0,90,0.00,CLR,,0.00,WeatherDisplay:10.37,2013-06-26 10:00:00,
2013-06-26 06:05:00,70.2,67.1,29.83,SE,142,0.0,2.0,90,0.00,CLR,,0.00,WeatherDisplay:10.37,2013-06-26 10:05:00,
2013-06-26 06:10:00,70.1,67.3,29.82,ESE,122,0.0,2.0,91,0.00,CLR,,0.00,WeatherDisplay:10.37,2013-06-26 10:10:00,
2013-06-26 06:15:00,70.0,67.2,29.82,ESE,121,0.0,2.0,91,0.00,CLR,,0.00,WeatherDisplay:10.37,2013-06-26 10:15:00,
2013-06-26 06:20:00,70.0,67.2,29.82,East,94,0.0,3.0,91,0.00,CLR,,0.00,WeatherDisplay:10.37,2013-06-26 10:20:00,
2013-06-26 06:30:00,70.0,67.2,29.82,SSE,161,0.0,2.0,91,0.00,CLR,,0.00,WeatherDisplay:10.37,2013-06-26 10:30:00,
2013-06-26 06:35:00,70.0,67.2,29.83,East,93,0.0,2.0,91,0.00,CLR,,0.00,WeatherDisplay:10.37,2013-06-26 10:35:00,
2013-06-26 06:40:00,70.2,67.4,29.83,East,99,0.0,2.0,91,0.00,CLR,,0.00,WeatherDisplay:10.37,2013-06-26 10:40:00,
2013-06-26 06:45:00,70.2,67.4,29.83,East,94,0.0,2.0,91,0.00,CLR,,0.00,WeatherDisplay:10.37,2013-06-26 10:45:00,
2013-06-26 06:50:00,70.2,67.4,29.83,East,90,0.0,2.0,91,0.00,CLR,,0.00,WeatherDisplay:10.37,2013-06-26 10:50:00,
2013-06-26 06:55:00,70.2,67.4,29.83,East,82,0.0,2.0,91,0.00,CLR,,0.00,WeatherDisplay:10.37,2013-06-26 10:55:00,
2013-06-26 07:00:00,70.2,67.4,29.83,NNE,30,0.0,2.0,91,0.00,CLR,,0.00,WeatherDisplay:10.37,2013-06-26 11:00:00,
2013-06-26 07:05:00,70.9,67.8,29.84,North,11,1.0,2.0,90,0.00,CLR,,0.00,WeatherDisplay:10.37,2013-06-26 11:05:00,
2013-06-26 07:10:00,71.1,67.7,29.83,East,86,0.0,2.0,89,0.00,CLR,,0.00,WeatherDisplay:10.37,2013-06-26 11:10:00,
2013-06-26 07:15:00,71.3,67.9,29.84,East,89,0.0,2.0,89,0.00,CLR,,0.00,WeatherDisplay:10.37,2013-06-26 11:15:00,
2013-06-26 07:20:00,71.5,67.7,29.83,NNW,343,0.0,3.0,88,0.00,CLR,,0.00,WeatherDisplay:10.37,2013-06-26 11:20:00,
2013-06-26 07:25:00,71.8,67.7,29.83,North,355,1.0,3.0,87,0.00,CLR,,0.00,WeatherDisplay:10.37,2013-06-26 11:25:00,
2013-06-26 07:30:00,72.0,67.9,29.82,North,3,0.0,3.0,87,0.00,CLR,,0.00,WeatherDisplay:10.37,2013-06-26 11:30:00,
2013-06-26 07:40:00,72.3,68.2,29.83,SE,134,1.0,2.0,87,0.00,CLR,,0.00,WeatherDisplay:10.37,2013-06-26 11:40:00,
2013-06-26 07:45:00,72.5,68.1,29.82,SSE,150,0.0,2.0,86,0.00,CLR,,0.00,WeatherDisplay:10.37,2013-06-26 11:45:00,
2013-06-26 07:50:00,72.9,68.4,29.83,ENE,73,1.0,2.0,86,0.00,CLR,,0.00,WeatherDisplay:10.37,2013-06-26 11:50:00,
2013-06-26 07:55:00,73.1,68.3,29.83,East,90,1.0,4.0,85,0.00,CLR,,0.00,WeatherDisplay:10.37,2013-06-26 11:55:00,
2013-06-26 08:00:00,73.4,69.0,29.83,ENE,65,0.0,2.0,86,0.00,CLR,,0.00,WeatherDisplay:10.37,2013-06-26 12:00:00,
2013-06-26 08:10:00,73.9,69.1,29.83,East,98,0.0,2.0,85,0.00,CLR,,0.00,WeatherDisplay:10.37,2013-06-26 12:10:00,
2013-06-26 08:15:00,73.9,69.1,29.83,East,82,0.0,2.0,85,0.00,CLR,,0.00,WeatherDisplay:10.37,2013-06-26 12:15:00,
2013-06-26 08:20:00,74.1,69.3,29.83,NE,48,0.0,2.0,85,0.00,CLR,,0.00,WeatherDisplay:10.37,2013-06-26 12:20:00,
2013-06-26 08:25:00,74.1,69.3,29.83,NNE,15,0.0,2.0,85,0.00,CLR,,0.00,WeatherDisplay:10.37,2013-06-26 12:25:00,
2013-06-26 08:30:00,74.3,69.5,29.83,North,356,1.0,2.0,85,0.00,CLR,,0.00,WeatherDisplay:10.37,2013-06-26 12:30:00,
2013-06-26 08:40:00,74.3,69.5,29.83,East,80,1.0,2.0,85,0.00,CLR,,0.00,WeatherDisplay:10.37,2013-06-26 12:40:00,
2013-06-26 08:45:00,74.3,69.1,29.83,East,90,1.0,2.0,84,0.00,CLR,,0.00,WeatherDisplay:10.37,2013-06-26 12:45:00,
2013-06-26 08:50:00,74.3,69.1,29.84,East,91,0.0,2.0,84,0.00,CLR,,0.00,WeatherDisplay:10.37,2013-06-26 12:50:00,
2013-06-26 08:55:00,74.7,69.8,29.84,NE,51,2.0,3.0,85,0.00,CLR,,0.00,WeatherDisplay:10.37,2013-06-26 12:55:00,
2013-06-26 09:00:00,75.0,69.9,29.84,NNE,24,1.0,3.0,84,0.00,CLR,,0.00,WeatherDisplay:10.37,2013-06-26 13:00:00,
2013-06-26 09:10:00,75.3,69.1,29.84,NNE,26,0.0,2.0,81,0.00,CLR,,0.00,WeatherDisplay:10.37,2013-06-26 13:10:00,
2013-06-26 09:15:00,75.2,69.0,29.84,NE,36,1.0,4.0,81,0.00,CLR,,0.00,WeatherDisplay:10.37,2013-06-26 13:15:00,
2013-06-26 09:20:00,75.2,69.0,29.83,ENE,62,0.0,2.0,81,0.00,CLR,,0.00,WeatherDisplay:10.37,2013-06-26 13:20:00,
2013-06-26 09:25:00,75.1,69.5,29.83,East,79,0.0,2.0,83,0.00,CLR,,0.00,WeatherDisplay:10.37,2013-06-26 13:25:00,
2013-06-26 09:30:00,75.6,69.7,29.83,WSW,249,0.0,3.0,82,0.00,CLR,,0.00,WeatherDisplay:10.37,2013-06-26 13:30:00,
2013-06-26 09:35:00,76.4,70.5,29.83,West,270,1.0,3.0,82,0.00,CLR,,0.00,WeatherDisplay:10.37,2013-06-26 13:35:00,
2013-06-26 09:40:00,77.0,70.0,29.83,NNE,27,0.0,3.0,79,0.00,CLR,,0.00,WeatherDisplay:10.37,2013-06-26 13:40:00,
2013-06-26 09:45:00,77.2,69.8,29.83,NNE,26,1.0,2.0,78,0.00,CLR,,0.00,WeatherDisplay:10.37,2013-06-26 13:45:00,
2013-06-26 09:50:00,77.5,69.8,29.83,SE,131,1.0,4.0,77,0.00,CLR,,0.00,WeatherDisplay:10.37,2013-06-26 13:50:00,
2013-06-26 09:55:00,78.2,70.0,29.83,East,79,2.0,4.0,76,0.00,CLR,,0.00,WeatherDisplay:10.37,2013-06-26 13:55:00,
2013-06-26 10:00:00,78.7,70.2,29.83,East,86,2.0,5.0,75,0.00,CLR,,0.00,WeatherDisplay:10.37,2013-06-26 14:00:00,
2013-06-26 10:05:00,79.0,69.6,29.83,South,175,1.0,5.0,73,0.00,CLR,,0.00,WeatherDisplay:10.37,2013-06-26 14:05:00,
2013-06-26 10:10:00,79.1,69.7,29.83,West,267,1.0,3.0,73,0.00,CLR,,0.00,WeatherDisplay:10.37,2013-06-26 14:10:00,
2013-06-26 10:20:00,79.5,69.7,29.83,NE,36,2.0,4.0,72,0.00,CLR,,0.00,WeatherDisplay:10.37,2013-06-26 14:20:00,
2013-06-26 10:25:00,79.7,69.9,29.83,NNE,13,1.0,3.0,72,0.00,CLR,,0.00,WeatherDisplay:10.37,2013-06-26 14:25:00,
2013-06-26 10:30:00,79.7,69.9,29.82,North,352,1.0,4.0,72,0.00,CLR,,0.00,WeatherDisplay:10.37,2013-06-26 14:30:00,
2013-06-26 10:35:00,79.5,69.3,29.83,North,349,1.0,3.0,71,0.00,CLR,,0.00,WeatherDisplay:10.37,2013-06-26 14:35:00,
2013-06-26 10:40:00,79.3,69.1,29.82,ESE,121,0.0,5.0,71,0.00,CLR,,0.00,WeatherDisplay:10.37,2013-06-26 14:40:00,
2013-06-26 10:50:00,79.0,69.2,29.82,NNW,344,1.0,2.0,72,0.00,CLR,,0.00,WeatherDisplay:10.37,2013-06-26 14:50:00,
2013-06-26 10:55:00,78.8,69.0,29.83,NE,48,0.0,4.0,72,0.00,CLR,,0.00,WeatherDisplay:10.37,2013-06-26 14:55:00,
2013-06-26 11:00:00,78.8,69.8,29.83,East,95,1.0,2.0,74,0.00,CLR,,0.00,WeatherDisplay:10.37,2013-06-26 15:00:00,
2013-06-26 11:05:00,78.8,69.4,29.83,East,98,0.0,2.0,73,0.00,CLR,,0.00,WeatherDisplay:10.37,2013-06-26 15:05:00,
2013-06-26 11:10:00,78.8,69.4,29.83,East,84,0.0,5.0,73,0.00,CLR,,0.00,WeatherDisplay:10.37,2013-06-26 15:10:00,
2013-06-26 11:15:00,78.8,69.4,29.83,East,91,1.0,2.0,73,0.00,CLR,,0.00,WeatherDisplay:10.37,2013-06-26 15:15:00,
2013-06-26 11:25:00,78.6,69.6,29.83,ENE,68,0.0,2.0,74,0.00,CLR,,0.00,WeatherDisplay:10.37,2013-06-26 15:25:00,
2013-06-26 11:30:00,78.6,69.6,29.83,ENE,66,1.0,3.0,74,0.00,CLR,,0.00,WeatherDisplay:10.37,2013-06-26 15:30:00,
2013-06-26 11:35:00,78.6,69.6,29.83,NE,36,1.0,4.0,74,0.00,CLR,,0.00,WeatherDisplay:10.37,2013-06-26 15:35:00,
2013-06-26 11:40:00,78.4,69.9,29.83,NNE,29,0.0,2.0,75,0.00,CLR,,0.00,WeatherDisplay:10.37,2013-06-26 15:40:00,
2013-06-26 11:45:00,78.4,69.9,29.83,East,79,0.0,2.0,75,0.00,CLR,,0.00,WeatherDisplay:10.37,2013-06-26 15:45:00,
2013-06-26 11:50:00,78.3,70.1,29.83,ENE,70,0.0,2.0,76,0.00,CLR,,0.00,WeatherDisplay:10.37,2013-06-26 15:50:00,
2013-06-26 11:55:00,78.4,70.6,29.83,NE,41,1.0,2.0,77,0.00,CLR,,0.00,WeatherDisplay:10.37,2013-06-26 15:55:00,
2013-06-26 12:00:00,78.4,70.2,29.83,NNE,17,0.0,2.0,76,0.00,CLR,,0.00,WeatherDisplay:10.37,2013-06-26 16:00:00,
2013-06-26 12:10:00,79.0,70.0,29.83,East,93,1.0,4.0,74,0.00,CLR,,0.00,WeatherDisplay:10.37,2013-06-26 16:10:00,
2013-06-26 12:15:00,79.0,69.6,29.83,East,79,0.0,3.0,73,0.00,CLR,,0.00,WeatherDisplay:10.37,2013-06-26 16:15:00,
2013-06-26 12:25:00,79.7,70.3,29.83,SW,219,1.0,2.0,73,0.00,CLR,,0.00,WeatherDisplay:10.37,2013-06-26 16:25:00,
2013-06-26 12:30:00,80.1,70.6,29.84,NW,313,0.0,4.0,73,0.00,CLR,,0.00,WeatherDisplay:10.37,2013-06-26 16:30:00,
2013-06-26 12:40:00,80.8,70.5,29.84,NE,55,1.0,3.0,71,0.00,CLR,,0.00,WeatherDisplay:10.37,2013-06-26 16:40:00,
2013-06-26 12:45:00,81.1,70.8,29.83,East,84,1.0,3.0,71,0.00,CLR,,0.00,WeatherDisplay:10.37,2013-06-26 16:45:00,
2013-06-26 12:50:00,81.1,70.8,29.83,East,98,2.0,2.0,71,0.00,CLR,,0.00,WeatherDisplay:10.37,2013-06-26 16:50:00,
2013-06-26 12:55:00,81.1,70.4,29.83,ESE,110,0.0,2.0,70,0.00,CLR,,0.00,WeatherDisplay:10.37,2013-06-26 16:55:00,
2013-06-26 13:00:00,81.1,70.0,29.83,East,97,1.0,4.0,69,0.00,CLR,,0.00,WeatherDisplay:10.37,2013-06-26 17:00:00,
2013-06-26 13:05:00,81.1,70.0,29.83,East,90,1.0,2.0,69,0.00,FEW,,0.00,WeatherDisplay:10.37,2013-06-26 17:05:00,
2013-06-26 13:10:00,81.3,71.0,29.83,NE,56,1.0,3.0,71,0.00,FEW,,0.00,WeatherDisplay:10.37,2013-06-26 17:10:00,
2013-06-26 13:15:00,81.7,70.9,29.83,East,88,1.0,3.0,70,0.00,FEW,,0.00,WeatherDisplay:10.37,2013-06-26 17:15:00,
2013-06-26 13:20:00,81.9,71.1,29.83,ESE,119,0.0,2.0,70,0.00,FEW,,0.00,WeatherDisplay:10.37,2013-06-26 17:20:00,
2013-06-26 13:25:00,82.0,71.7,29.83,ESE,102,0.0,4.0,71,0.00,FEW,,0.00,WeatherDisplay:10.37,2013-06-26 17:25:00,
2013-06-26 13:30:00,82.4,71.2,29.83,ENE,72,1.0,6.0,69,0.00,FEW,,0.00,WeatherDisplay:10.37,2013-06-26 17:30:00,
2013-06-26 13:40:00,82.6,70.5,29.83,ESE,120,1.0,5.0,67,0.00,FEW,,0.00,WeatherDisplay:10.37,2013-06-26 17:40:00,
2013-06-26 13:50:00,82.4,70.8,29.83,ENE,64,1.0,4.0,68,0.00,FEW,,0.00,WeatherDisplay:10.37,2013-06-26 17:50:00,
2013-06-26 14:00:00,82.0,71.3,29.83,NE,34,1.0,2.0,70,0.00,FEW,,0.00,WeatherDisplay:10.37,2013-06-26 18:00:00,
2013-06-26 14:05:00,81.9,71.5,29.83,ENE,58,1.0,3.0,71,0.00,CLR,,0.00,WeatherDisplay:10.37,2013-06-26 18:05:00,
2013-06-26 14:10:00,81.9,71.5,29.83,ENE,65,1.0,4.0,71,0.00,CLR,,0.00,WeatherDisplay:10.37,2013-06-26 18:10:00,
2013-06-26 14:15:00,81.9,71.9,29.82,NE,38,1.0,2.0,72,0.00,CLR,,0.00,WeatherDisplay:10.37,2013-06-26 18:15:00,
2013-06-26 14:20:00,81.9,71.5,29.82,NE,45,0.0,2.0,71,0.00,CLR,,0.00,WeatherDisplay:10.37,2013-06-26 18:20:00,
2013-06-26 14:25:00,82.0,72.1,29.82,East,81,1.0,2.0,72,0.00,CLR,,0.00,WeatherDisplay:10.37,2013-06-26 18:25:00,
2013-06-26 14:30:00,82.2,72.7,29.82,East,90,0.0,3.0,73,0.00,CLR,,0.00,WeatherDisplay:10.37,2013-06-26 18:30:00,
2013-06-26 14:35:00,82.8,71.1,29.81,ESE,102,1.0,3.0,68,0.00,CLR,,0.00,WeatherDisplay:10.37,2013-06-26 18:35:00,
2013-06-26 14:40:00,83.3,71.2,29.81,NE,55,2.0,6.0,67,0.00,CLR,,0.00,WeatherDisplay:10.37,2013-06-26 18:40:00,
2013-06-26 14:45:00,83.8,71.3,29.81,NE,49,1.0,6.0,66,0.00,CLR,,0.00,WeatherDisplay:10.37,2013-06-26 18:45:00,
2013-06-26 14:50:00,84.1,71.0,29.81,NE,40,1.0,5.0,65,0.00,CLR,,0.00,WeatherDisplay:10.37,2013-06-26 18:50:00,
2013-06-26 14:55:00,84.4,71.3,29.81,NE,47,1.0,3.0,65,0.00,CLR,,0.00,WeatherDisplay:10.37,2013-06-26 18:55:00,
2013-06-26 15:05:00,84.7,71.2,29.80,SE,135,1.0,3.0,64,0.00,CLR,,0.00,WeatherDisplay:10.37,2013-06-26 19:05:00,
2013-06-26 15:10:00,84.7,71.2,29.80,South,180,1.0,2.0,64,0.00,CLR,,0.00,WeatherDisplay:10.37,2013-06-26 19:10:00,
2013-06-26 15:15:00,84.7,70.7,29.80,SW,217,1.0,4.0,63,0.00,CLR,,0.00,WeatherDisplay:10.37,2013-06-26 19:15:00,
2013-06-26 15:25:00,84.7,71.7,29.80,East,80,1.0,3.0,65,0.00,CLR,,0.00,WeatherDisplay:10.37,2013-06-26 19:25:00,
2013-06-26 15:35:00,84.9,71.8,29.79,NNE,31,1.0,4.0,65,0.00,CLR,,0.00,WeatherDisplay:10.37,2013-06-26 19:35:00,
2013-06-26 15:40:00,85.3,72.2,29.79,SSE,165,1.0,5.0,65,0.00,CLR,,0.00,WeatherDisplay:10.37,2013-06-26 19:40:00,
2013-06-26 15:45:00,85.3,71.7,29.79,South,175,1.0,4.0,64,0.00,CLR,,0.00,WeatherDisplay:10.37,2013-06-26 19:45:00,
2013-06-26 15:55:00,85.3,71.7,29.78,ENE,60,0.0,4.0,64,0.00,CLR,,0.00,WeatherDisplay:10.37,2013-06-26 19:55:00,
2013-06-26 16:00:00,85.6,72.5,29.78,NE,37,1.0,2.0,65,0.00,CLR,,0.00,WeatherDisplay:10.37,2013-06-26 20:00:00,
2013-06-26 16:10:00,86.0,71.5,29.78,North,353,1.0,5.0,62,0.00,CLR,,0.00,WeatherDisplay:10.37,2013-06-26 20:10:00,
2013-06-26 16:20:00,86.4,70.3,29.78,North,3,2.0,6.0,59,0.00,CLR,,0.00,WeatherDisplay:10.37,2013-06-26 20:20:00,
2013-06-26 16:25:00,86.4,70.3,29.78,NNW,347,3.0,6.0,59,0.00,CLR,,0.00,WeatherDisplay:10.37,2013-06-26 20:25:00,
2013-06-26 16:30:00,86.5,70.5,29.78,NNW,343,2.0,6.0,59,0.00,CLR,,0.00,WeatherDisplay:10.37,2013-06-26 20:30:00,
2013-06-26 16:40:00,86.7,71.2,29.77,NNW,343,1.0,5.0,60,0.00,CLR,,0.00,WeatherDisplay:10.37,2013-06-26 20:40:00,
2013-06-26 16:45:00,86.5,70.0,29.77,NNW,342,1.0,2.0,58,0.00,CLR,,0.00,WeatherDisplay:10.37,2013-06-26 20:45:00,
2013-06-26 16:50:00,86.5,70.5,29.77,NW,324,2.0,7.0,59,0.00,CLR,,0.00,WeatherDisplay:10.37,2013-06-26 20:50:00,
2013-06-26 16:55:00,86.4,70.3,29.77,SW,228,1.0,5.0,59,0.00,CLR,,0.00,WeatherDisplay:10.37,2013-06-26 20:55:00,
2013-06-26 17:00:00,86.2,70.2,29.77,NNW,333,1.0,6.0,59,0.00,CLR,,0.00,WeatherDisplay:10.37,2013-06-26 21:00:00,
2013-06-26 17:05:00,86.0,70.5,29.76,East,84,1.0,6.0,60,0.00,CLR,,0.00,WeatherDisplay:10.37,2013-06-26 21:05:00,
2013-06-26 17:10:00,85.8,70.8,29.77,North,7,1.0,4.0,61,0.00,CLR,,0.00,WeatherDisplay:10.37,2013-06-26 21:10:00,
2013-06-26 17:15:00,85.5,71.0,29.77,North,3,1.0,3.0,62,0.00,CLR,,0.00,WeatherDisplay:10.37,2013-06-26 21:15:00,
2013-06-26 17:20:00,85.5,71.0,29.76,NNW,340,1.0,2.0,62,0.00,CLR,,0.00,WeatherDisplay:10.37,2013-06-26 21:20:00,
2013-06-26 17:30:00,85.6,71.6,29.76,NNW,331,1.0,3.0,63,0.00,CLR,,0.00,WeatherDisplay:10.37,2013-06-26 21:30:00,
2013-06-26 17:35:00,85.6,71.6,29.76,NNW,330,1.0,3.0,63,0.00,CLR,,0.00,WeatherDisplay:10.37,2013-06-26 21:35:00,
2013-06-26 17:45:00,85.6,70.2,29.76,NNW,329,1.0,4.0,60,0.00,CLR,,0.00,WeatherDisplay:10.37,2013-06-26 21:45:00,
2013-06-26 17:50:00,85.6,70.2,29.76,NNW,332,0.0,6.0,60,0.00,CLR,,0.00,WeatherDisplay:10.37,2013-06-26 21:50:00,
2013-06-26 18:00:00,84.9,70.4,29.76,West,268,1.0,3.0,62,0.00,CLR,,0.00,WeatherDisplay:10.37,2013-06-26 22:00:00,
2013-06-26 18:05:00,84.4,69.9,29.77,NW,307,0.0,3.0,62,0.00,BKN,,0.00,WeatherDisplay:10.37,2013-06-26 22:05:00,
2013-06-26 18:10:00,84.2,70.7,29.77,West,267,0.0,2.0,64,0.00,BKN,,0.00,WeatherDisplay:10.37,2013-06-26 22:10:00,
2013-06-26 18:15:00,83.7,71.1,29.76,ENE,70,0.0,2.0,66,0.00,BKN,,0.00,WeatherDisplay:10.37,2013-06-26 22:15:00,
2013-06-26 18:20:00,83.3,70.8,29.76,NE,45,0.0,1.0,66,0.00,BKN,,0.00,WeatherDisplay:10.37,2013-06-26 22:20:00,
2013-06-26 18:25:00,82.9,70.9,29.76,ENE,74,0.0,2.0,67,0.00,BKN,,0.00,WeatherDisplay:10.37,2013-06-26 22:25:00,
2013-06-26 18:30:00,82.8,70.7,29.76,NE,52,0.0,2.0,67,0.00,BKN,,0.00,WeatherDisplay:10.37,2013-06-26 22:30:00,
2013-06-26 18:35:00,82.4,70.3,29.75,North,0,0.0,2.0,67,0.00,BKN,,0.00,WeatherDisplay:10.37,2013-06-26 22:35:00,
2013-06-26 18:40:00,82.2,71.0,29.75,North,0,0.0,2.0,69,0.00,BKN,,0.00,WeatherDisplay:10.37,2013-06-26 22:40:00,
2013-06-26 18:45:00,82.0,70.9,29.75,NNE,19,0.0,2.0,69,0.00,BKN,,0.00,WeatherDisplay:10.37,2013-06-26 22:45:00,
2013-06-26 18:50:00,81.9,70.7,29.76,NE,45,1.0,2.0,69,0.00,BKN,,0.00,WeatherDisplay:10.37,2013-06-26 22:50:00,
2013-06-26 18:55:00,81.9,71.1,29.76,NE,45,0.0,1.0,70,0.00,BKN,,0.00,WeatherDisplay:10.37,2013-06-26 22:55:00,
2013-06-26 19:05:00,82.0,71.3,29.76,NNW,333,1.0,4.0,70,0.00,BKN,,0.00,WeatherDisplay:10.37,2013-06-26 23:05:00,
2013-06-26 19:10:00,82.2,70.6,29.77,NW,320,0.0,2.0,68,0.00,BKN,,0.00,WeatherDisplay:10.37,2013-06-26 23:10:00,
2013-06-26 19:15:00,82.4,71.2,29.77,WNW,289,0.0,2.0,69,0.00,SCT,,0.00,WeatherDisplay:10.37,2013-06-26 23:15:00,
2013-06-26 19:20:00,82.2,71.9,29.77,South,174,0.0,2.0,71,0.00,SCT,,0.00,WeatherDisplay:10.37,2013-06-26 23:20:00,
2013-06-26 19:25:00,82.0,71.7,29.77,South,180,0.0,2.0,71,0.00,SCT,,0.00,WeatherDisplay:10.37,2013-06-26 23:25:00,
2013-06-26 19:30:00,81.8,71.5,29.77,South,180,0.0,1.0,71,0.00,SCT,,0.00,WeatherDisplay:10.37,2013-06-26 23:30:00,
2013-06-26 19:35:00,81.5,71.6,29.77,South,180,0.0,1.0,72,0.00,SCT,,0.00,WeatherDisplay:10.37,2013-06-26 23:35:00,
2013-06-26 19:40:00,81.3,71.4,29.77,South,180,0.0,1.0,72,0.00,SCT,,0.00,WeatherDisplay:10.37,2013-06-26 23:40:00,
2013-06-26 19:45:00,81.1,71.3,29.77,South,180,0.0,2.0,72,0.00,SCT,,0.00,WeatherDisplay:10.37,2013-06-26 23:45:00,
2013-06-26 19:50:00,81.0,71.1,29.77,SSW,194,0.0,2.0,72,0.00,SCT,,0.00,WeatherDisplay:10.37,2013-06-26 23:50:00,
2013-06-26 19:55:00,80.6,70.7,29.77,WSW,256,1.0,2.0,72,0.00,SCT,,0.00,WeatherDisplay:10.37,2013-06-26 23:55:00,
2013-06-26 20:00:00,80.4,71.4,29.77,WNW,300,0.0,1.0,74,0.00,SCT,,0.00,WeatherDisplay:10.37,2013-06-27 00:00:00,
2013-06-26 20:05:00,80.2,70.8,29.78,NW,315,0.0,2.0,73,0.00,CLR,,0.00,WeatherDisplay:10.37,2013-06-27 00:05:00,
2013-06-26 20:10:00,80.2,70.8,29.77,NW,315,0.0,2.0,73,0.00,CLR,,0.00,WeatherDisplay:10.37,2013-06-27 00:10:00,
2013-06-26 20:20:00,80.1,71.0,29.78,NW,315,0.0,2.0,74,0.00,CLR,,0.00,WeatherDisplay:10.37,2013-06-27 00:20:00,
2013-06-26 20:30:00,79.7,70.6,29.77,South,181,0.0,2.0,74,0.00,CLR,,0.00,WeatherDisplay:10.37,2013-06-27 00:30:00,
2013-06-26 20:35:00,79.5,70.5,29.77,South,180,0.0,1.0,74,0.00,CLR,,0.00,WeatherDisplay:10.37,2013-06-27 00:35:00,
2013-06-26 20:40:00,79.2,70.5,29.77,South,180,1.0,2.0,75,0.00,CLR,,0.00,WeatherDisplay:10.37,2013-06-27 00:40:00,
2013-06-26 20:45:00,79.2,70.5,29.77,South,180,1.0,2.0,75,0.00,CLR,,0.00,WeatherDisplay:10.37,2013-06-27 00:45:00,
2013-06-26 20:50:00,78.8,69.8,29.77,South,180,0.0,2.0,74,0.00,CLR,,0.00,WeatherDisplay:10.37,2013-06-27 00:50:00,
2013-06-26 21:00:00,78.6,70.0,29.78,South,180,0.0,2.0,75,0.00,CLR,,0.00,WeatherDisplay:10.37,2013-06-27 01:00:00,
2013-06-26 21:05:00,78.4,69.9,29.78,SW,234,0.0,2.0,75,0.00,CLR,,0.00,WeatherDisplay:10.37,2013-06-27 01:05:00,
2013-06-26 21:10:00,78.3,70.1,29.78,SW,225,0.0,2.0,76,0.00,CLR,,0.00,WeatherDisplay:10.37,2013-06-27 01:10:00,
2013-06-26 21:15:00,78.3,70.8,29.78,SSW,205,0.0,2.0,78,0.00,CLR,,0.00,WeatherDisplay:10.37,2013-06-27 01:15:00,
2013-06-26 21:20:00,78.3,71.6,29.79,SSW,208,0.0,1.0,80,0.00,CLR,,0.00,WeatherDisplay:10.37,2013-06-27 01:20:00,
2013-06-26 21:25:00,78.3,72.3,29.79,SW,220,0.0,1.0,82,0.00,CLR,,0.00,WeatherDisplay:10.37,2013-06-27 01:25:00,
2013-06-26 21:30:00,78.3,72.7,29.79,SW,225,0.0,1.0,83,0.00,CLR,,0.00,WeatherDisplay:10.37,2013-06-27 01:30:00,
2013-06-26 21:35:00,78.4,72.8,29.79,SW,225,0.0,1.0,83,0.00,CLR,,0.00,WeatherDisplay:10.37,2013-06-27 01:35:00,
2013-06-26 21:40:00,78.3,72.7,29.79,SW,225,0.0,1.0,83,0.00,CLR,,0.00,WeatherDisplay:10.37,2013-06-27 01:40:00,
2013-06-26 21:45:00,78.3,72.7,29.78,SW,225,0.0,1.0,83,0.00,CLR,,0.00,WeatherDisplay:10.37,2013-06-27 01:45:00,
2013-06-26 21:50:00,78.1,72.5,29.79,SW,225,0.0,1.0,83,0.00,CLR,,0.00,WeatherDisplay:10.37,2013-06-27 01:50:00,
2013-06-26 21:55:00,78.1,72.5,29.78,SW,225,0.0,1.0,83,0.00,CLR,,0.00,WeatherDisplay:10.37,2013-06-27 01:55:00,
2013-06-26 22:00:00,78.1,72.8,29.78,SW,225,0.0,1.0,84,0.00,CLR,,0.00,WeatherDisplay:10.37,2013-06-27 02:00:00,
2013-06-26 22:05:00,78.1,72.8,29.78,SW,225,0.0,1.0,84,0.00,OVC,,0.00,WeatherDisplay:10.37,2013-06-27 02:05:00,
2013-06-26 22:10:00,77.7,72.5,29.79,SW,225,0.0,1.0,84,0.00,OVC,,0.00,WeatherDisplay:10.37,2013-06-27 02:10:00,
2013-06-26 22:15:00,77.5,72.3,29.79,SW,225,0.0,1.0,84,0.00,OVC,,0.00,WeatherDisplay:10.37,2013-06-27 02:15:00,
2013-06-26 22:20:00,77.5,72.7,29.80,SW,225,0.0,1.0,85,0.00,OVC,,0.00,WeatherDisplay:10.37,2013-06-27 02:20:00,
2013-06-26 22:25:00,77.4,72.5,29.80,SW,225,0.0,1.0,85,0.00,OVC,,0.00,WeatherDisplay:10.37,2013-06-27 02:25:00,
2013-06-26 22:30:00,77.2,72.3,29.79,SW,225,0.0,0.0,85,0.00,OVC,,0.00,WeatherDisplay:10.37,2013-06-27 02:30:00,
2013-06-26 22:40:00,77.0,72.5,29.80,SW,225,0.0,0.0,86,0.00,OVC,,0.00,WeatherDisplay:10.37,2013-06-27 02:40:00,
2013-06-26 22:45:00,77.0,72.5,29.80,SW,225,0.0,1.0,86,0.00,OVC,,0.00,WeatherDisplay:10.37,2013-06-27 02:45:00,
2013-06-26 22:50:00,77.0,72.8,29.80,SW,225,0.0,1.0,87,0.00,OVC,,0.00,WeatherDisplay:10.37,2013-06-27 02:50:00,
2013-06-26 22:55:00,76.8,73.0,29.79,SW,225,0.0,1.0,88,0.00,OVC,,0.00,WeatherDisplay:10.37,2013-06-27 02:55:00,
2013-06-26 23:00:00,76.8,73.0,29.79,SW,225,1.0,1.0,88,0.00,OVC,,0.00,WeatherDisplay:10.37,2013-06-27 03:00:00,
2013-06-26 23:05:00,76.6,72.8,29.80,SW,225,0.0,1.0,88,0.00,OVC,,0.00,WeatherDisplay:10.37,2013-06-27 03:05:00,
2013-06-26 23:10:00,76.5,73.0,29.79,SW,225,0.0,0.0,89,0.00,OVC,,0.00,WeatherDisplay:10.37,2013-06-27 03:10:00,
2013-06-26 23:15:00,76.5,73.0,29.79,SW,225,0.0,0.0,89,0.00,OVC,,0.00,WeatherDisplay:10.37,2013-06-27 03:15:00,
2013-06-26 23:20:00,76.3,72.8,29.79,SW,225,0.0,1.0,89,0.00,OVC,,0.00,WeatherDisplay:10.37,2013-06-27 03:20:00,
2013-06-26 23:25:00,76.3,72.8,29.80,SW,225,0.0,0.0,89,0.00,OVC,,0.00,WeatherDisplay:10.37,2013-06-27 03:25:00,
2013-06-26 23:30:00,76.3,72.8,29.80,SW,225,0.0,0.0,89,0.00,OVC,,0.00,WeatherDisplay:10.37,2013-06-27 03:30:00,
2013-06-26 23:35:00,76.1,73.0,29.80,SW,225,0.0,0.0,90,0.00,OVC,,0.00,WeatherDisplay:10.37,2013-06-27 03:35:00,
2013-06-26 23:40:00,76.1,73.0,29.80,SW,225,0.0,0.0,90,0.00,OVC,,0.00,WeatherDisplay:10.37,2013-06-27 03:40:00,
2013-06-26 23:45:00,76.1,73.0,29.80,SW,225,0.0,0.0,90,0.00,OVC,,0.00,WeatherDisplay:10.37,2013-06-27 03:45:00,
2013-06-26 23:50:00,76.1,73.0,29.80,SW,225,0.0,0.0,90,0.00,OVC,,0.00,WeatherDisplay:10.37,2013-06-27 03:50:00,
2013-06-26 23:55:00,76.1,73.3,29.80,WSW,238,1.0,2.0,91,0.00,OVC,,0.00,WeatherDisplay:10.37,2013-06-27 03:55:00,